Location: Powder Track
(41.8531°N, 72.3584°W)
Time: 22:59:00
(UTC+00:00)

Vanguard 2 Rocket - Pass Details

Date: 10 August 2021
Orbit: 555 x 3324 km, 32.9° (Epoch: 18 September)

Event Time Altitude Azimuth Distance (km) Brightness Sun altitude
Rises 07:35:25 0° 219° (SW) 5,553 - -21.8°
Reaches altitude 10° 07:40:47 10° 206° (SSW) 3,982 - -21.1°
Exits shadow 07:45:15 19° 182° (S) 2,866 9.0 -20.5°
Maximum altitude 07:47:21 20° 164° (SSE) 2,540 8.9 -20.2°
Drops below altitude 10° 07:52:01 10° 118° (ESE) 2,712 9.5 -19.6°
Sets 07:54:49 0° 100° (E) 3,360 10.3 -19.3°
